Regional Weather Roundup
Issued by NWS

Home | Current Version | Previous Version | Text Only | Print | Product List | Glossary On
Versions: 1 2 3 4 5 6 7 8 9 10 11 12 13 14 15 16 17 18 19 20 21 22 23 24 25 26 27 28 29 30 31 32 33 34 35 36 37 38 39 40 41 42 43 44 45 46 47 48 49 50
000
ASUS43 KFSD 301810
RWRSD

WEATHER ROUNDUP FOR SOUTH DAKOTA
NATIONAL WEATHER SERVICE SIOUX FALLS SD
100 PM CDT SAT APR 30 2016

NOTE: "FAIR" INDICATES FEW OR NO CLOUDS BELOW 12,000 FEET WITH NO
SIGNIFICANT WEATHER AND/OR OBSTRUCTIONS TO VISIBILITY.


SDZ001>005-009-010-012>017-301900-
NORTHWEST AND NORTH CENTRAL SOUTH DAKOTA

CITY           SKY/WX    TMP DP  RH WIND       PRES   REMARKS
BUFFALO          N/A     53  33  46 E20G28    30.09S
FAITH            N/A     52  32  46 NE23G31   30.10F
MOBRIDGE       MOSUNNY   58  34  40 NE24G35   30.10F
$$

SDZ012>016-024>037-041>051-057-063-072>074-301900-
SOUTHWEST AND SOUTH CENTRAL SOUTH DAKOTA

CITY           SKY/WX    TMP DP  RH WIND       PRES   REMARKS
RAPID CTY ARPT CLOUDY    44  39  82 NE13      30.09S
PIERRE         CLOUDY    53  35  50 NE25G38   30.02F
CUSTER         CLOUDY    33  29  85 NE15G25   30.04S WCI  23
ELLSWORTH AFB  LGT RAIN  46  37  71 NE12      30.09
PHILIP         CLOUDY    50  34  54 NE28G36   30.04F
PINE RIDGE     CLOUDY    41  36  82 N21G29    30.00R
WINNER         RAIN      45  38  76 NE24G35   29.95S
$$

SDZ004>011-016>023-039-040-301900-
NORTHEAST SOUTH DAKOTA

CITY           SKY/WX    TMP DP  RH WIND       PRES   REMARKS
ABERDEEN       CLOUDY    55  35  47 NE20G31   30.10F
WATERTOWN      CLOUDY    50  36  58 E24G31    30.04F
BROOKINGS      CLOUDY    45  36  70 NE23G32   29.97F
SISSETON         N/A     56  34  43 E20G29    30.09F
$$

SDZ017-020-022-023-036>040-048>070-301900-
SOUTHEAST SOUTH DAKOTA

CITY           SKY/WX    TMP DP  RH WIND       PRES   REMARKS
SIOUX FALLS    LGT RAIN  43  40  89 NE25G33   29.91F FOG
HURON          CLOUDY    50  38  63 NE23G31   30.01F
CHAMBERLAIN    CLOUDY    48  38  67 NE17G28   29.97F
MITCHELL       LGT RAIN  44  39  82 NE18G26   29.96F
YANKTON        CLOUDY    43  39  87 NE17G26   29.86R
$$

ABBREVIATIONS USED IN REMARKS
   TC - TEMPERATURE IN CELSIUS
  WCI - WIND CHILL INDEX
   HX - HEAT INDEX
  VSB - VISIBILITY





USA.gov is the U.S. government's official web portal to all federal, state and local government web resources and services.